Flag for France Weather past 2 weeks in Strasbourg, France

Now
54 °F

Clear.


Feels Like: 51 °F
Forecast: 40 / 64 °F
Wind: 8 mph from North

Location: Strasbourg Airport

Current Time: Apr 19, 2015 at 11:44:34 AM

Latest Report: Apr 19, 2015 at 11:00 AM


Visibility: N/A

Pressure: 30.09 "Hg

Humidity: 44%

Dew point: 32 °F

Location of StrasbourgLocation

Historic Weather in Strasbourg — Graph

°F

Strasbourg temperature yesterday

Maximum temperature yesterday: 59 °F (at 5:30 PM)
Minimum temperature yesterday: 43 °F (at 5:30 AM)
Average temperature yesterday: 51 °F

Past Weeks' High & Low Weather Summary

 TemperatureHumidityPressure
High81 °F (Apr 15, 3:00 PM)94% (Apr 17, 2:30 PM)30.63 "Hg (Apr 17, 2:30 PM)
Low30 °F (Apr 6, 5:30 AM)15% (Apr 15, 4:30 PM)29.89 "Hg (Apr 16, 5:30 PM)
Average53 °F60%30.24 "Hg
* Reported Apr 4 10:00 AM — Apr 19 10:30 AM, Strasbourg, Weather by CustomWeather, © 2015

Note: Actual official high and low records may vary slightly from our data, if they occured in-between our weather recording intervals... More about our weather records

Advertising

Strasbourg weather history for previous 24 hours

 ConditionsComfort  
Time TempWeatherWind HumidityBarometerVisibility
10:30 AM
Sun, Apr 19
52 °FClear.8 mph54%30.09 "HgN/A
10:00 AM50 °FClear.7 mph54%30.09 "HgN/A
9:30 AM48 °FClear.6 mph58%30.09 "HgN/A
9:00 AM46 °FClear.7 mph62%30.09 "HgN/A
8:30 AM43 °FClear.7 mph66%30.09 "HgN/A
8:00 AM41 °FClear.6 mph70%30.09 "HgN/A
7:30 AM39 °FClear.3 mph70%30.09 "HgN/A
7:00 AM37 °FClear.5 mph75%30.09 "HgN/A
6:30 AM36 °FClear.7 mph81%30.09 "HgN/A
6:00 AM36 °FClear.5 mph81%30.09 "HgN/A
5:30 AM37 °FClear.5 mph75%30.09 "HgN/A
5:00 AM37 °FClear.5 mph75%30.12 "HgN/A
4:30 AM37 °FClear.6 mph75%30.12 "HgN/A
4:00 AM39 °FClear.6 mph70%30.12 "HgN/A
3:30 AM41 °FClear.7 mph70%30.15 "HgN/A
3:00 AM41 °FClear.7 mph70%30.15 "HgN/A
2:30 AM41 °FClear.6 mph70%30.15 "HgN/A
2:00 AM43 °FClear.5 mph66%30.15 "HgN/A
1:30 AM43 °FClear.7 mph66%30.18 "HgN/A
1:00 AM45 °FClear.7 mph61%30.18 "HgN/A
12:30 AM46 °FClear.7 mph57%30.18 "HgN/A
12:00 AM46 °FClear.8 mph57%30.18 "HgN/A
11:30 PM
Sat, Apr 18
46 °FClear.8 mph62%30.18 "HgN/A
10:30 PM50 °FClear.10 mph47%30.18 "HgN/A
10:00 PM50 °FClear.10 mph50%30.18 "HgN/A
9:30 PM50 °FClear.9 mph50%30.18 "HgN/A
9:00 PM52 °FClear.12 mph47%30.18 "HgN/A
8:30 PM52 °FClear.10 mph47%30.18 "HgN/A
8:00 PM54 °FClear.15 mph41%30.18 "HgN/A
7:30 PM55 °FClear.16 mph38%30.18 "HgN/A
7:00 PM55 °FClear.15 mph41%30.18 "HgN/A
6:30 PM57 °FClear.15 mph39%30.18 "HgN/A
6:00 PM57 °FClear.14 mph36%30.15 "HgN/A
5:30 PM59 °FClear.16 mph39%30.18 "HgN/A
5:00 PM57 °FClear.17 mph39%30.18 "HgN/A
4:30 PM57 °FClear.15 mph36%30.18 "HgN/A
4:00 PM57 °FClear.15 mph41%30.18 "HgN/A
3:30 PM57 °FClear.13 mph39%30.21 "HgN/A
3:00 PM57 °FClear.12 mph39%30.21 "HgN/A
2:30 PM57 °FClear.14 mph41%30.21 "HgN/A
2:00 PM57 °FClear.17 mph39%30.21 "HgN/A
1:30 PM57 °FClear.16 mph41%30.21 "HgN/A
1:00 PM55 °FClear.18 mph44%30.21 "HgN/A
12:30 PM55 °FClear.16 mph41%30.21 "HgN/A
12:00 PM55 °FPartly sunny.13 mph47%30.21 "HgN/A
11:30 AM54 °FScattered clouds.14 mph51%30.21 "HgN/A
11:00 AM54 °FPassing clouds.14 mph47%30.21 "HgN/A
Weather by CustomWeather, © 2015

See weather overviewHow to use our weather pages